Location: Beaver Brook Station
(42.3793°N, 71.2203°W)
Time: 06:47:45
(UTC+00:00)

ATLAS 2AS CENTAUR R/B - Pass Details

Date: 29 October 2020
Orbit: 939 x 1273 km, 63.7° (Epoch: 23 November)

Event Time Altitude Azimuth Distance (km) Brightness Sun altitude
Rises 23:37:37 0° 326° (NW) 4,151 6.3 -22.0°
Reaches altitude 10° 23:40:40 10° 333° (NNW) 3,142 5.5 -22.5°
Maximum altitude 23:47:45 43° 43° (NE) 1,557 3.2 -23.9°
Enters shadow 23:48:39 41° 61° (ENE) 1,583 3.2 -24.0°
